Date String (YYYY-MM-DD hh:mm:ss) UTC,Instrument flags,Ambient pressure (hPa),Sample flow (lpm),Bypass flow (lpm),Sample temperature (°C),Ambient temperature (°C),ASC tube jacket temperature (°C),LED temperature (°C),Box temperature (°C),Sample RH (%),Span deviation,Mass concentration (μg/m³),Mass concentration (μg/m³),Mass concentration (μg/m³)
DateTimeUTC,F1_M11,P_M11,Q1_M11,Q2_M11,T1_M11,T2_M11,T3_M11,T4_M11,T5_M11,U1_M11,ZSPAN_M11,X2_M11,X0_M11,X1_M11
2021-10-10 09:00:00,,0823.4,4.99,0.00,29.1,28.1,00.0,38.4,30.9,12.2,0000.0,0003.33,0013.75,0001.90
2021-10-10 09:01:00,,0823.4,5.02,0.00,29.1,28.1,00.0,38.3,30.9,12.2,0000.0,0003.24,0013.21,0001.95
2021-10-10 09:02:00,,0823.4,5.00,0.00,29.1,28.1,00.0,38.3,30.9,12.3,0000.0,0003.17,0012.18,0001.98
2021-10-10 09:03:00,,0823.4,4.99,0.00,29.1,28.1,00.0,38.3,30.9,12.1,0000.0,0003.13,0010.67,0002.02
2021-10-10 09:04:00,,0823.4,5.00,0.00,29.1,28.1,00.0,38.3,30.9,12.1,0000.0,0003.03,0009.11,0002.06
2021-10-10 09:05:00,,0823.4,5.00,0.00,29.1,28.1,00.0,38.3,30.8,12.1,0000.0,0002.98,0008.12,0002.09
2021-10-10 09:06:00,,0823.4,5.00,0.00,29.1,28.1,00.0,38.3,30.8,12.2,0000.0,0003.02,0008.08,0002.11
2021-10-10 09:07:00,,0823.5,5.00,0.00,29.1,28.1,00.0,38.3,30.8,12.3,0000.0,0002.99,0008.18,0002.11
2021-10-10 09:08:00,,0823.6,5.00,0.00,29.1,28.1,00.0,38.3,30.8,12.4,0000.0,0002.91,0007.75,0002.13
2021-10-10 09:09:00,,0823.6,5.01,0.00,29.1,28.1,00.0,38.3,30.8,12.6,0000.0,0002.90,0007.63,0002.13
2021-10-10 09:10:00,,0823.7,5.01,0.00,29.1,28.1,00.0,38.3,30.8,12.7,0000.0,0002.87,0006.70,0002.12
2021-10-10 09:11:00,,0823.7,5.01,0.00,29.1,28.0,00.0,38.3,30.8,12.9,0000.0,0002.86,0005.99,0002.13
2021-10-10 09:12:00,,0823.6,4.99,0.00,29.1,28.0,00.0,38.3,30.8,13.0,0000.0,0002.88,0005.89,0002.13
2021-10-10 09:13:00,,0823.6,5.00,0.00,29.1,28.0,00.0,38.3,30.7,13.1,0000.0,0002.87,0005.71,0002.12
2021-10-10 09:14:00,,0823.6,5.01,0.00,29.0,28.0,00.0,38.3,30.7,13.1,0000.0,0002.81,0006.51,0002.12
2021-10-10 09:15:00,,0823.6,5.00,0.00,29.0,28.0,00.0,38.2,30.7,13.0,0000.0,0002.83,0007.03,0002.12
2021-10-10 09:16:00,,0823.7,5.00,0.00,29.0,28.0,00.0,38.2,30.7,13.1,0000.0,0002.83,0007.02,0002.12
2021-10-10 09:17:00,,0823.7,4.99,0.00,29.0,28.0,00.0,38.2,30.7,13.0,0000.0,0002.84,0006.91,0002.12
2021-10-10 09:18:00,,0823.7,5.01,0.00,29.0,28.0,00.0,38.2,30.7,12.9,0000.0,0002.90,0006.76,0002.13
2021-10-10 09:19:00,,0823.7,4.99,0.00,29.0,28.0,00.0,38.2,30.7,12.9,0000.0,0002.96,0006.58,0002.12
2021-10-10 09:20:00,,0823.7,5.01,0.00,29.0,28.0,00.0,38.2,30.8,12.9,0000.0,0002.96,0006.59,0002.12
2021-10-10 09:21:00,,0823.7,5.00,0.00,29.0,28.1,00.0,38.2,30.8,12.9,0000.0,0002.98,0006.68,0002.13
2021-10-10 09:22:00,,0823.7,5.00,0.00,29.0,28.0,00.0,38.2,30.8,12.9,0000.0,0002.97,0006.82,0002.12
2021-10-10 09:23:00,,0823.7,5.00,0.00,29.0,28.1,00.0,38.2,30.8,12.9,0000.0,0003.00,0007.82,0002.11
2021-10-10 09:24:00,,0823.7,4.99,0.00,29.0,28.1,00.0,38.2,30.8,12.9,0000.0,0003.07,0007.71,0002.11
2021-10-10 09:25:00,,0823.7,5.00,0.00,29.0,28.1,00.0,38.2,30.8,12.9,0000.0,0003.07,0006.85,0002.10
2021-10-10 09:26:00,,0823.7,5.00,0.00,29.0,28.1,00.0,38.2,30.8,12.9,0000.0,0003.07,0006.50,0002.09
2021-10-10 09:27:00,,0823.7,5.00,0.00,29.0,28.1,00.0,38.2,30.8,12.8,0000.0,0003.14,0006.80,0002.11
2021-10-10 09:28:00,,0823.7,5.00,0.00,29.0,28.1,00.0,38.2,30.8,12.9,0000.0,0003.15,0007.03,0002.11
2021-10-10 09:29:00,,0823.7,5.00,0.00,29.0,28.1,00.0,38.2,30.8,12.9,0000.0,0003.13,0006.86,0002.10
2021-10-10 09:30:00,,0823.8,4.98,0.00,29.0,28.1,00.0,38.2,30.8,12.9,0000.0,0003.11,0006.89,0002.09
2021-10-10 09:31:00,,0823.8,5.01,0.00,29.0,28.1,00.0,38.2,30.8,12.9,0000.0,0003.11,0007.07,0002.08
2021-10-10 09:32:00,,0823.8,5.01,0.00,29.1,28.1,00.0,38.2,30.8,12.9,0000.0,0003.09,0007.06,0002.06
2021-10-10 09:33:00,,0823.7,4.99,0.00,29.1,28.1,00.0,38.2,30.8,12.9,0000.0,0003.09,0006.98,0002.05
2021-10-10 09:34:00,,0823.8,5.00,0.00,29.0,28.1,00.0,38.2,30.8,12.9,0000.0,0003.04,0006.17,0002.04
2021-10-10 09:35:00,,0823.8,5.01,0.00,29.0,28.1,00.0,38.2,30.8,12.9,0000.0,0002.94,0006.85,0002.04
2021-10-10 09:36:00,,0823.8,4.99,0.00,29.0,28.1,00.0,38.2,30.8,12.9,0000.0,0002.95,0007.22,0002.04
2021-10-10 09:37:00,,0823.7,5.01,0.00,29.1,28.1,00.0,38.2,30.8,12.9,0000.0,0002.96,0007.24,0002.04
2021-10-10 09:38:00,,0823.7,4.99,0.00,29.0,28.1,00.0,38.2,30.8,12.8,0000.0,0002.88,0007.12,0002.01
2021-10-10 09:39:00,,0823.7,5.00,0.00,29.0,28.1,00.0,38.2,30.8,12.8,0000.0,0002.80,0007.40,0002.00
2021-10-10 09:40:00,,0823.7,5.00,0.00,29.0,28.1,00.0,38.2,30.8,12.9,0000.0,0002.76,0007.37,0002.00
2021-10-10 09:41:00,,0823.7,5.00,0.00,29.0,28.0,00.0,38.2,30.8,12.8,0000.0,0002.79,0007.46,0002.01
2021-10-10 09:42:00,,0823.7,4.99,0.00,29.0,28.0,00.0,38.2,30.8,12.9,0000.0,0002.81,0007.39,0002.01
2021-10-10 09:43:00,,0823.7,5.00,0.00,29.0,28.0,00.0,38.2,30.8,12.9,0000.0,0002.84,0007.40,0002.02
2021-10-10 09:44:00,,0823.8,5.01,0.00,29.0,28.0,00.0,38.2,30.8,12.9,0000.0,0002.82,0007.89,0002.02
2021-10-10 09:45:00,,0823.8,5.01,0.00,29.0,28.0,00.0,38.2,30.8,12.9,0000.0,0002.86,0007.76,0002.03
2021-10-10 09:46:00,,0823.8,4.99,0.00,29.0,28.0,00.0,38.2,30.8,12.8,0000.0,0002.87,0007.21,0002.02
2021-10-10 09:47:00,,0823.8,5.01,0.00,29.0,28.0,00.0,38.2,30.7,12.8,0000.0,0002.84,0006.88,0002.00
2021-10-10 09:48:00,,0823.8,5.00,0.00,29.0,28.0,00.0,38.2,30.7,12.8,0000.0,0002.90,0007.52,0002.00
2021-10-10 09:49:00,,0823.8,4.99,0.00,29.0,27.9,00.0,38.2,30.7,12.8,0000.0,0002.89,0007.68,0002.01
2021-10-10 09:50:00,,0823.8,5.00,0.00,29.0,27.9,00.0,38.2,30.7,12.7,0000.0,0002.92,0007.40,0002.01
2021-10-10 09:51:00,,0823.8,5.01,0.00,29.0,27.9,00.0,38.2,30.7,12.5,0000.0,0002.91,0007.31,0002.01
2021-10-10 09:52:00,,0823.7,5.00,0.00,29.0,27.9,00.0,38.2,30.7,12.5,0000.0,0002.90,0007.14,0001.99
2021-10-10 09:53:00,,0823.7,4.99,0.00,28.9,27.9,00.0,38.1,30.7,12.4,0000.0,0002.87,0006.98,0001.97
2021-10-10 09:54:00,,0823.7,5.00,0.00,28.9,27.9,00.0,38.1,30.6,12.4,0000.0,0002.84,0006.84,0001.96
2021-10-10 09:55:00,,0823.7,5.01,0.00,28.9,27.9,00.0,38.1,30.6,12.7,0000.0,0002.85,0005.94,0001.95
2021-10-10 09:56:00,,0823.7,5.00,0.00,28.9,27.8,00.0,38.1,30.6,12.6,0000.0,0002.79,0006.53,0001.94
2021-10-10 09:57:00,,0823.7,4.99,0.00,28.9,27.8,00.0,38.1,30.6,12.5,0000.0,0002.79,0006.42,0001.94
2021-10-10 09:58:00,,0823.7,4.99,0.00,28.9,27.8,00.0,38.1,30.6,12.5,0000.0,0002.75,0006.27,0001.94
2021-10-10 09:59:00,,0823.7,5.00,0.00,28.9,27.8,00.0,38.1,30.5,12.8,0000.0,0002.67,0005.40,0001.92
